[[{"header":{"parameterUnit":"m.s-1","parameterCategory":2,"la1":30.2991,"la2":30.254,"lo1":-89.0895,"lo2":-89.0444,"dy":0.0017,"dx":0.0017,"nx":28,"ny":28,"refTime":"2025-01-07T03:00:00:Z","depth":"0","parameterNumber":2,"parameterNumberName":"U-component_of_CURRENTS"},"data":[0,0,0,0,0,0,0,0,0,0,0,0,0,0,0,0,0,0,0,0,0,0,0,0,0,0,0,0,0,0,0,0,0,0,0,0,0,0,0,0,0,0,0,0,0,0,0,0,0,0,0,0,0,0,0,0,0,0,-0.2783,-0.2782,0,-0.2663,-0.2662,-0.266,-0.2601,-0.2601,-0.2602,-0.2602,-0.243,-0.2425,-0.242,0,0,0,0,0,0,0,0,0,0,0,0,0,-0.283,-0.283,-0.2783,-0.2781,-0.278,-0.2663,-0.2661,-0.266,-0.2601,-0.2601,-0.2602,-0.2602,-0.2432,-0.2426,-0.242,0,0,0,0,0,0,0,0,0,0,0,0,0,-0.2768,-0.283,-0.2783,-0.2739,-0.2734,-0.2664,-0.2661,-0.2659,-0.2601,-0.2601,-0.2602,-0.2602,-0.2433,-0.2426,-0.2419,-0.2367,0,0,-0.2397,-0.2394,0,0,0,0,0,0,0,0,-0.2771,-0.2766,-0.2747,-0.2742,-0.2736,-0.265,-0.2615,-0.256,-0.2601,-0.2648,-0.2602,-0.2602,-0.25,-0.2488,-0.2461,-0.2359,-0.2351,-0.2397,-0.2392,-0.2389,-0.2387,0,0,0,0,0,0,0,-0.2776,-0.277,-0.2732,-0.2745,-0.2739,-0.2681,-0.2673,-0.2604,-0.257,-0.2644,-0.264,-0.2632,-0.2497,-0.2468,-0.2456,-0.2349,-0.2397,-0.239,-0.2386,-0.2383,-0.2233,-0.2233,0,0,0,0,0,0,-0.2803,-0.2775,-0.2736,-0.2729,-0.2758,-0.2681,-0.2672,-0.2675,-0.2572,-0.2558,-0.2631,-0.2629,-0.248,-0.2465,-0.245,-0.2395,-0.2389,-0.2382,-0.2378,-0.2233,-0.2233,-0.2233,0,0,0,0,0,0,-0.2804,-0.2801,-0.2741,-0.275,-0.2739,-0.2681,-0.2684,-0.2672,-0.2644,-0.2563,-0.2548,-0.2616,-0.248,-0.246,-0.2383,-0.2387,-0.2379,-0.2372,-0.2232,-0.2233,-0.2233,-0.2276,0,0,0,0,0,0,-0.2807,-0.2803,-0.2807,-0.2753,-0.274,-0.2702,-0.2683,-0.267,-0.264,-0.2636,-0.2544,-0.2529,-0.2479,-0.2394,-0.2376,-0.2377,-0.2367,-0.2232,-0.2232,-0.2233,-0.2274,-0.2278,-0.2281,0,0,0,0,0,-0.2809,-0.2812,-0.2809,-0.2804,-0.2751,-0.2702,-0.2689,-0.2646,-0.2639,-0.2623,-0.256,-0.2532,-0.2387,-0.2387,-0.2366,-0.2366,-0.2231,-0.2232,-0.2233,-0.2272,-0.2277,-0.2281,0,0,0,0,0,0,-0.2822,-0.2805,-0.28,-0.2796,-0.2757,-0.2694,-0.2673,-0.2649,-0.2587,-0.2586,-0.2511,-0.249,-0.2434,-0.2392,-0.2395,-0.2329,-0.2314,-0.2311,-0.2352,-0.2355,-0.2359,-0.2377,-0.2361,0,0,0,0,0,-0.2834,-0.2836,-0.2803,-0.2793,-0.2782,-0.273,-0.2704,-0.2682,-0.2624,-0.2598,-0.253,-0.2471,-0.2419,-0.2382,-0.2327,-0.227,-0.2256,-0.2266,-0.2269,-0.2272,-0.2275,-0.2265,-0.2269,-0.2236,-0.2236,-0.2236,0,0,-0.2829,-0.2824,-0.282,-0.2797,-0.2764,-0.2741,-0.2714,-0.2684,-0.2656,-0.2588,-0.2518,-0.2473,-0.2408,-0.2354,-0.2327,-0.2317,-0.2275,-0.2273,-0.2276,-0.2278,-0.2267,-0.227,-0.2273,-0.2236,-0.2236,-0.2236,0,0,-0.2819,-0.2826,-0.2822,-0.2801,-0.2773,-0.2747,-0.2744,-0.2687,-0.2655,-0.2587,-0.2548,-0.2505,-0.2399,-0.2367,-0.2336,-0.2324,-0.2297,-0.2314,-0.2335,-0.2325,-0.2328,-0.233,-0.232,-0.2321,-0.2313,-0.2313,-0.2313,0,-0.281,-0.2812,-0.2806,-0.2797,-0.278,-0.2756,-0.2739,-0.2701,-0.2621,-0.2592,-0.2573,-0.246,-0.241,-0.2362,-0.2364,-0.2333,-0.2321,-0.2322,-0.2331,-0.2332,-0.2334,-0.2322,-0.2323,-0.2315,-0.2315,-0.2314,-0.2314,0,-0.2792,-0.2796,-0.279,-0.2781,-0.2765,-0.2745,-0.2714,-0.2685,-0.2651,-0.2607,-0.2548,-0.2484,-0.2422,-0.2411,-0.2375,-0.2366,-0.2353,-0.234,-0.2322,-0.234,-0.2327,-0.2326,-0.2318,-0.2317,-0.2317,-0.2316,0,0,-0.2744,-0.2774,-0.2768,-0.2768,-0.276,-0.2736,-0.2716,-0.2675,-0.2651,-0.2591,-0.2552,-0.2485,-0.2465,-0.2433,-0.24,-0.2392,-0.2396,-0.2373,-0.2371,-0.2366,-0.2374,-0.2277,-0.2268,-0.2383,-0.2384,-0.2384,-0.2361,0,-0.2718,-0.2721,-0.2742,-0.2723,-0.2713,-0.2715,-0.2688,-0.2657,-0.2624,-0.258,-0.2544,-0.2491,-0.2469,-0.2447,-0.2439,-0.2405,-0.2396,-0.2403,-0.2354,-0.2352,-0.2267,-0.2264,-0.2145,-0.2107,-0.2361,-0.2361,-0.2361,0,-0.267,-0.2686,-0.2684,-0.2697,-0.2692,-0.2682,-0.2658,-0.2634,-0.2598,-0.2571,-0.2545,-0.2512,-0.249,-0.2475,-0.2437,-0.2441,-0.2413,-0.2392,-0.239,-0.2284,-0.2255,-0.2129,-0.2097,-0.2071,-0.236,-0.236,-0.236,0,-0.2607,-0.263,-0.2635,-0.2635,-0.2651,-0.2647,-0.2646,-0.262,-0.2589,-0.2573,-0.2557,-0.2529,-0.2509,-0.2483,-0.2436,-0.2438,-0.2397,-0.2393,-0.2281,-0.2275,-0.2154,-0.2136,-0.2091,-0.2371,-0.2371,-0.2371,-0.2371,0,-0.255,-0.2535,-0.2609,-0.2599,-0.2582,-0.2613,-0.2578,-0.2578,-0.257,-0.2519,-0.2549,-0.2509,-0.2511,-0.2481,-0.2446,-0.2353,-0.2402,-0.228,-0.2258,-0.2164,-0.2148,-0.2103,-0.2127,-0.2371,-0.2371,-0.2371,-0.2371,0,-0.2436,-0.2496,-0.2492,-0.254,-0.2547,-0.2527,-0.2528,-0.2483,-0.2524,-0.2474,-0.247,-0.2491,-0.2451,-0.2441,-0.2398,-0.2346,-0.2227,-0.2238,-0.2126,-0.2089,-0.194,-0.1971,-0.1909,-0.1855,-0.2108,-0.2105,-0.2103,0,-0.2352,-0.2356,-0.2427,-0.2409,-0.2421,-0.2409,-0.237,-0.2426,-0.2387,-0.2427,-0.2382,-0.2391,-0.2327,-0.2263,-0.2185,-0.2109,-0.2121,-0.1961,-0.1936,-0.1906,-0.1925,-0.1958,-0.1921,-0.1804,-0.1799,-0.1796,-0.1793,0,-0.2173,-0.2232,-0.2237,-0.2234,-0.2214,-0.2199,-0.2177,-0.2162,-0.2206,-0.2205,-0.2186,-0.2171,-0.213,-0.2001,-0.1937,-0.1877,-0.1894,-0.188,-0.1879,-0.1701,-0.1705,-0.165,-0.186,-0.176,-0.1763,-0.1766,-0.1767,-0.1769,-0.1999,-0.1985,-0.2014,-0.1997,-0.1989,-0.1958,-0.1898,-0.1907,-0.1876,-0.1856,-0.1939,-0.1897,-0.1849,-0.1733,-0.1674,-0.1548,-0.1639,-0.1494,-0.1541,-0.1584,-0.1501,-0.1633,-0.1486,-0.1487,-0.1489,-0.149,-0.1491,0,-0.1741,-0.1767,-0.1747,-0.1736,-0.1673,-0.1749,-0.1716,-0.1651,-0.1584,-0.1621,-0.1603,-0.1574,-0.1453,-0.1438,-0.1322,-0.124,-0.1229,-0.1223,-0.1257,-0.124,-0.1364,-0.1316,-0.1088,-0.1088,-0.1088,-0.1089,-0.1089,-0.1089,-0.1594,-0.1521,-0.1558,-0.1417,-0.1414,-0.1301,-0.1272,-0.1241,-0.1243,-0.1201,-0.1219,-0.1281,-0.1295,-0.1316,-0.1185,-0.1112,-0.1105,-0.1051,-0.1112,-0.1217,-0.1247,-0.1276,-0.1235,-0.0994,-0.0994,-0.0919,-0.0919,-0.0918]},{"header":{"parameterUnit":"m.s-1","parameterCategory":2,"la1":30.2991,"la2":30.254,"lo1":-89.0895,"lo2":-89.0444,"dy":0.0017,"dx":0.0017,"nx":28,"ny":28,"refTime":"2025-01-07T03:00:00:Z","depth":"0","parameterNumber":3,"parameterNumberName":"V-component_of_CURRENTS"},"data":[0,0,0,0,0,0,0,0,0,0,0,0,0,0,0,0,0,0,0,0,0,0,0,0,0,0,0,0,0,0,0,0,0,0,0,0,0,0,0,0,0,0,0,0,0,0,0,0,0,0,0,0,0,0,0,0,0,0,-0.0613,-0.0613,0,-0.054,-0.0539,-0.0538,-0.0509,-0.051,-0.051,-0.0511,-0.0376,-0.0372,-0.0368,0,0,0,0,0,0,0,0,0,0,0,0,0,-0.0657,-0.0657,-0.0613,-0.0613,-0.0612,-0.054,-0.0539,-0.0538,-0.0509,-0.051,-0.051,-0.0511,-0.0377,-0.0372,-0.0367,0,0,0,0,0,0,0,0,0,0,0,0,0,-0.0614,-0.0656,-0.0614,-0.0591,-0.0588,-0.0541,-0.0539,-0.0537,-0.0509,-0.051,-0.051,-0.0511,-0.0378,-0.0373,-0.0367,-0.0317,0,0,-0.0349,-0.0346,0,0,0,0,0,0,0,0,-0.0617,-0.0612,-0.0595,-0.0593,-0.059,-0.0537,-0.0505,-0.0462,-0.0509,-0.0537,-0.0511,-0.0511,-0.0425,-0.0415,-0.0397,-0.0311,-0.0305,-0.0348,-0.0344,-0.0342,-0.034,0,0,0,0,0,0,0,-0.062,-0.0615,-0.0582,-0.0594,-0.0591,-0.056,-0.0555,-0.0496,-0.0475,-0.0534,-0.0533,-0.0528,-0.0423,-0.0403,-0.0394,-0.0303,-0.0348,-0.0343,-0.0339,-0.0337,-0.0189,-0.0189,0,0,0,0,0,0,-0.0637,-0.0618,-0.0584,-0.058,-0.0608,-0.0559,-0.0554,-0.0551,-0.0477,-0.0467,-0.0528,-0.0527,-0.0413,-0.0401,-0.0389,-0.034,-0.0342,-0.0336,-0.0333,-0.0189,-0.0189,-0.0188,0,0,0,0,0,0,-0.0638,-0.0635,-0.0587,-0.0599,-0.0591,-0.0559,-0.0555,-0.0549,-0.0535,-0.0473,-0.0462,-0.0521,-0.0413,-0.0397,-0.0336,-0.0334,-0.0334,-0.0328,-0.019,-0.0189,-0.0189,-0.0233,0,0,0,0,0,0,-0.064,-0.0635,-0.064,-0.06,-0.0591,-0.0564,-0.0555,-0.0547,-0.0532,-0.0531,-0.0463,-0.0451,-0.0412,-0.0345,-0.033,-0.0326,-0.0323,-0.019,-0.0189,-0.0189,-0.0232,-0.0234,-0.0236,0,0,0,0,0,-0.0641,-0.0653,-0.0641,-0.0637,-0.0599,-0.0564,-0.0556,-0.0533,-0.0532,-0.0523,-0.0476,-0.0454,-0.0331,-0.034,-0.0322,-0.0316,-0.019,-0.019,-0.0189,-0.0231,-0.0234,-0.0236,0,0,0,0,0,0,-0.0677,-0.0649,-0.0636,-0.0639,-0.0605,-0.0561,-0.0555,-0.0536,-0.0492,-0.0493,-0.0436,-0.042,-0.037,-0.0333,-0.0344,-0.0273,-0.0262,-0.0258,-0.03,-0.0302,-0.0304,-0.0324,-0.0318,0,0,0,0,0,-0.0686,-0.0684,-0.0647,-0.0645,-0.0634,-0.0593,-0.0578,-0.056,-0.0518,-0.0501,-0.0448,-0.0397,-0.0351,-0.032,-0.0271,-0.022,-0.0191,-0.0209,-0.0211,-0.0213,-0.0218,-0.0176,-0.0174,-0.0186,-0.0186,-0.0186,0,0,-0.0697,-0.0683,-0.0681,-0.0652,-0.0626,-0.0609,-0.0585,-0.0566,-0.0545,-0.049,-0.0442,-0.0397,-0.0339,-0.029,-0.0265,-0.0259,-0.0192,-0.0212,-0.0215,-0.0218,-0.0175,-0.0174,-0.0173,-0.0185,-0.0186,-0.0186,0,0,-0.0724,-0.0707,-0.0716,-0.0688,-0.0657,-0.0626,-0.0624,-0.0575,-0.0549,-0.0494,-0.0458,-0.0414,-0.0328,-0.0292,-0.0264,-0.0243,-0.0206,-0.0231,-0.0251,-0.021,-0.0209,-0.0208,-0.0163,-0.0158,-0.0231,-0.0231,-0.0231,0,-0.0738,-0.0745,-0.071,-0.0707,-0.0692,-0.0639,-0.0639,-0.0595,-0.0528,-0.0504,-0.0486,-0.038,-0.0332,-0.0283,-0.028,-0.0249,-0.0218,-0.0249,-0.0214,-0.0212,-0.021,-0.0164,-0.0158,-0.0233,-0.0232,-0.0232,-0.0232,0,-0.0765,-0.0768,-0.0769,-0.0746,-0.0721,-0.0711,-0.0652,-0.0615,-0.0576,-0.0531,-0.047,-0.0401,-0.0344,-0.0323,-0.0291,-0.0256,-0.0236,-0.0224,-0.0213,-0.0212,-0.0163,-0.0156,-0.0236,-0.0235,-0.0234,-0.0234,0,0,-0.0803,-0.0793,-0.0792,-0.0794,-0.0745,-0.0728,-0.0687,-0.0636,-0.061,-0.0537,-0.0503,-0.0423,-0.0391,-0.0358,-0.0315,-0.0277,-0.0232,-0.0248,-0.0245,-0.0212,-0.0136,-0.0088,-0.0074,-0.0215,-0.0214,-0.0213,-0.0106,0,-0.0834,-0.0858,-0.0832,-0.0834,-0.0841,-0.0777,-0.074,-0.0682,-0.062,-0.0563,-0.0493,-0.0441,-0.0402,-0.038,-0.0335,-0.0258,-0.0214,-0.0262,-0.0134,-0.013,-0.0095,-0.0065,-0.0042,0.0058,-0.0098,-0.0097,-0.0096,0,-0.0869,-0.0883,-0.091,-0.0891,-0.0885,-0.0869,-0.0809,-0.0768,-0.0672,-0.0621,-0.0558,-0.0496,-0.0425,-0.0398,-0.0268,-0.03,-0.0224,-0.0164,-0.0158,-0.0094,-0.0068,0.0033,0.0078,0.0201,-0.0084,-0.0085,-0.0085,0,-0.0928,-0.0931,-0.0962,-0.0953,-0.092,-0.0911,-0.088,-0.0795,-0.0749,-0.0664,-0.0623,-0.0531,-0.0477,-0.038,-0.0244,-0.0257,-0.0098,-0.0099,0.0018,0.0022,0.0076,0.0084,0.0248,-0.001,-0.0011,-0.0011,-0.0011,0,-0.0976,-0.0993,-0.0995,-0.1008,-0.102,-0.0974,-0.095,-0.0899,-0.0815,-0.0761,-0.0668,-0.0605,-0.047,-0.0355,-0.0249,-0.008,-0.0095,0.0024,0.0056,0.0063,0.0068,0.0205,0.0249,-0.0007,-0.0008,-0.0008,-0.0009,0,-0.1027,-0.1034,-0.1066,-0.1059,-0.1055,-0.1062,-0.0999,-0.0962,-0.0888,-0.0818,-0.0794,-0.0649,-0.0498,-0.0348,-0.0173,-0.0074,0.0155,0.0131,0.0135,0.0166,0.0372,0.0412,0.0604,0.0678,0.0269,0.0271,0.0272,0,-0.1046,-0.108,-0.1111,-0.1119,-0.1117,-0.1108,-0.1081,-0.101,-0.0961,-0.0835,-0.0801,-0.0647,-0.0514,-0.0233,-0.0039,0.0168,0.0254,0.0308,0.0287,0.0403,0.0471,0.0494,0.0544,0.0346,0.0348,0.0349,0.0351,0,-0.1072,-0.1097,-0.1121,-0.1156,-0.1155,-0.1144,-0.1108,-0.1085,-0.0985,-0.0919,-0.0798,-0.0692,-0.0411,-0.0157,0.0116,0.0237,0.0403,0.0349,0.0472,0.0552,0.0587,0.0667,0.0256,0.0366,0.0364,0.0363,0.0362,0.0362,-0.1065,-0.1101,-0.1135,-0.1162,-0.1168,-0.116,-0.1141,-0.109,-0.1027,-0.0909,-0.0809,-0.0627,-0.0265,0.0126,0.0273,0.0584,0.0549,0.0665,0.0707,0.0723,0.079,0.0417,0.0558,0.0557,0.0557,0.0557,0.0556,0,-0.1027,-0.1079,-0.1117,-0.1151,-0.1155,-0.116,-0.1126,-0.1085,-0.1019,-0.0906,-0.0779,-0.0386,-0.0019,0.0313,0.0751,0.0925,0.0953,0.1009,0.1046,0.1081,0.0761,0.076,0.0948,0.0948,0.0948,0.0947,0.0947,0.0947,-0.1004,-0.1044,-0.1086,-0.111,-0.113,-0.1115,-0.1097,-0.1051,-0.0964,-0.0761,-0.0552,-0.0394,0.0105,0.0803,0.1211,0.125,0.1393,0.1384,0.1465,0.1236,0.1206,0.1178,0.1189,0.1463,0.1464,0.1767,0.177,0.1772]}],[{"header":{"parameterUnit":"m.s-1","parameterCategory":2,"la1":30.2991,"la2":30.254,"lo1":-89.0895,"lo2":-89.0444,"dy":0.0017,"dx":0.0017,"nx":28,"ny":28,"refTime":"2025-01-07T03:00:00:Z","depth":"2","parameterNumber":2,"parameterNumberName":"U-component_of_CURRENTS"},"data":[0,0,0,0,0,0,0,0,0,0,0,0,0,0,0,0,0,0,0,0,0,0,0,0,0,0,0,0,0,0,0,0,0,0,0,0,0,0,0,0,0,0,0,0,0,0,0,0,0,0,0,0,0,0,0,0,0,0,-0.229,-0.229,0,-0.2287,-0.2287,-0.2286,-0.2271,-0.2272,-0.2272,-0.2272,-0.221,-0.2208,-0.2207,0,0,0,0,0,0,0,0,0,0,0,0,0,-0.2285,-0.2285,-0.2289,-0.229,-0.2291,-0.2288,-0.2287,-0.2286,-0.2271,-0.2272,-0.2272,-0.2272,-0.2211,-0.2209,-0.2206,0,0,0,0,0,0,0,0,0,0,0,0,0,-0.2279,-0.2285,-0.2289,-0.2288,-0.2288,-0.2288,-0.2287,-0.2286,-0.2271,-0.2272,-0.2272,-0.2273,-0.2212,-0.2209,-0.2206,-0.218,0,0,-0.2197,-0.2196,0,0,0,0,0,0,0,0,-0.2279,-0.2278,-0.2288,-0.2288,-0.2289,-0.2286,-0.2263,-0.225,-0.2271,-0.227,-0.2272,-0.2273,-0.2234,-0.223,-0.2219,-0.2177,-0.2175,-0.2197,-0.2195,-0.2194,-0.2193,0,0,0,0,0,0,0,-0.228,-0.2278,-0.2282,-0.2288,-0.2289,-0.229,-0.2289,-0.226,-0.2244,-0.2271,-0.2271,-0.2282,-0.2233,-0.2222,-0.2218,-0.2174,-0.2197,-0.2195,-0.2193,-0.2192,-0.2148,-0.2149,0,0,0,0,0,0,-0.2293,-0.2279,-0.2282,-0.2282,-0.2293,-0.229,-0.2288,-0.2281,-0.2245,-0.2243,-0.2282,-0.2281,-0.2227,-0.2221,-0.2215,-0.2212,-0.2194,-0.2191,-0.219,-0.2147,-0.2148,-0.2149,0,0,0,0,0,0,-0.2293,-0.2293,-0.2282,-0.2287,-0.2287,-0.229,-0.2282,-0.2281,-0.2287,-0.2256,-0.2251,-0.2292,-0.2227,-0.2219,-0.22,-0.2209,-0.219,-0.2188,-0.2147,-0.2148,-0.2148,-0.2187,0,0,0,0,0,0,-0.2292,-0.2292,-0.2299,-0.2287,-0.2287,-0.2287,-0.2282,-0.2281,-0.2296,-0.2295,-0.2262,-0.2256,-0.2227,-0.2205,-0.2197,-0.2204,-0.2185,-0.2146,-0.2147,-0.2148,-0.2185,-0.2189,-0.2192,0,0,0,0,0,-0.2292,-0.2295,-0.2298,-0.23,-0.2293,-0.2288,-0.2286,-0.2286,-0.2296,-0.2294,-0.2276,-0.2258,-0.2207,-0.2202,-0.2194,-0.22,-0.2146,-0.2147,-0.2148,-0.2183,-0.2188,-0.2192,0,0,0,0,0,0,-0.2291,-0.2294,-0.2298,-0.23,-0.23,-0.2288,-0.23,-0.2298,-0.2283,-0.2284,-0.2257,-0.2248,-0.2237,-0.2215,-0.2212,-0.2193,-0.2176,-0.2176,-0.2206,-0.221,-0.2214,-0.2221,-0.2183,0,0,0,0,0,-0.2297,-0.2297,-0.2302,-0.23,-0.2313,-0.2311,-0.2315,-0.2306,-0.2293,-0.2288,-0.227,-0.225,-0.2232,-0.222,-0.2196,-0.218,-0.2166,-0.2182,-0.2186,-0.2189,-0.219,-0.2183,-0.2186,-0.2153,-0.2153,-0.2153,0,0,-0.2289,-0.2299,-0.2294,-0.2301,-0.2308,-0.2316,-0.2312,-0.2314,-0.2314,-0.2282,-0.228,-0.226,-0.2232,-0.2215,-0.2209,-0.2199,-0.2191,-0.2191,-0.2194,-0.2193,-0.2185,-0.2188,-0.2191,-0.2154,-0.2154,-0.2153,0,0,-0.2278,-0.2294,-0.2295,-0.2307,-0.2323,-0.2322,-0.2331,-0.2327,-0.2325,-0.2313,-0.2298,-0.2288,-0.2256,-0.2239,-0.2227,-0.2239,-0.2213,-0.2234,-0.2253,-0.2247,-0.2249,-0.2252,-0.2237,-0.2238,-0.2234,-0.2234,-0.2234,0,-0.2274,-0.2278,-0.2293,-0.231,-0.2323,-0.2333,-0.2337,-0.2339,-0.2322,-0.232,-0.2317,-0.2288,-0.2268,-0.2256,-0.2261,-0.2247,-0.2235,-0.2238,-0.2252,-0.2253,-0.2255,-0.224,-0.224,-0.2236,-0.2236,-0.2235,-0.2235,0,-0.2265,-0.2281,-0.2291,-0.2314,-0.2323,-0.2329,-0.2343,-0.2349,-0.2355,-0.2348,-0.2342,-0.2316,-0.2298,-0.2296,-0.228,-0.2282,-0.2268,-0.2259,-0.224,-0.2261,-0.2243,-0.2243,-0.2239,-0.2238,-0.2237,-0.2237,0,0,-0.2203,-0.2271,-0.2274,-0.229,-0.2327,-0.2323,-0.2348,-0.2356,-0.2371,-0.236,-0.2367,-0.2347,-0.2339,-0.2326,-0.2309,-0.2306,-0.231,-0.2289,-0.2288,-0.2275,-0.2289,-0.22,-0.2191,-0.2302,-0.2303,-0.2303,-0.2272,0,-0.2188,-0.2227,-0.2258,-0.2275,-0.229,-0.2324,-0.2346,-0.2354,-0.2365,-0.2377,-0.2368,-0.2363,-0.235,-0.2341,-0.2339,-0.2318,-0.231,-0.2318,-0.2271,-0.2269,-0.2188,-0.2188,-0.2019,-0.1971,-0.2271,-0.2271,-0.2271,0,-0.216,-0.2186,-0.2215,-0.2261,-0.2273,-0.2288,-0.2321,-0.2337,-0.2371,-0.2379,-0.2383,-0.238,-0.2377,-0.2365,-0.2341,-0.2346,-0.232,-0.2304,-0.2302,-0.2205,-0.2179,-0.1999,-0.1958,-0.227,-0.227,-0.227,-0.227,0,-0.209,-0.215,-0.2174,-0.2191,-0.2247,-0.2263,-0.2292,-0.2331,-0.2345,-0.2379,-0.2389,-0.2391,-0.2386,-0.2367,-0.2337,-0.2339,-0.2307,-0.2305,-0.2199,-0.2193,-0.2031,-0.201,-0.2284,-0.2284,-0.2284,-0.2284,-0.2284,0,-0.2054,-0.2058,-0.2151,-0.215,-0.2171,-0.2224,-0.2243,-0.2281,-0.2328,-0.2326,-0.238,-0.2367,-0.2387,-0.237,-0.2343,-0.2262,-0.2308,-0.2196,-0.2176,-0.2039,-0.2019,-0.2266,-0.2264,-0.2283,-0.2283,-0.2283,-0.2283,0,-0.1959,-0.2029,-0.2042,-0.2112,-0.2135,-0.2144,-0.2211,-0.2214,-0.2289,-0.2289,-0.2298,-0.2349,-0.2322,-0.2329,-0.2298,-0.2251,-0.2196,-0.2155,-0.1991,-0.195,-0.2087,-0.2088,-0.2034,-0.203,-0.2027,-0.2025,-0.2023,0,-0.1917,-0.1921,-0.1996,-0.1997,-0.2026,-0.2062,-0.2073,-0.2168,-0.2169,-0.2246,-0.2221,-0.2248,-0.2204,-0.2155,-0.2089,-0.2022,-0.2106,-0.1832,-0.1803,-0.2074,-0.206,-0.2066,-0.207,-0.1609,-0.1603,-0.1599,-0.1596,0,-0.1799,-0.1839,-0.185,-0.1872,-0.1887,-0.191,-0.1941,-0.1949,-0.2033,-0.2049,-0.2043,-0.2035,-0.2009,-0.1864,-0.1815,-0.1756,-0.1834,-0.174,-0.2057,-0.1699,-0.167,-0.1658,-0.1677,-0.1557,-0.1561,-0.1564,-0.1566,-0.1567,-0.1693,-0.1684,-0.1709,-0.1716,-0.1734,-0.1726,-0.1698,-0.1733,-0.173,-0.1723,-0.1803,-0.1742,-0.1752,-0.1573,-0.1489,-0.1438,-0.1569,-0.1498,-0.1513,-0.1532,-0.1488,-0.1456,-0.1295,-0.1297,-0.1299,-0.1301,-0.1302,0,-0.1541,-0.1543,-0.1541,-0.1537,-0.1498,-0.157,-0.1567,-0.1515,-0.1455,-0.1483,-0.1463,-0.132,-0.1229,-0.1257,-0.1107,-0.1078,-0.1085,-0.1039,-0.1046,-0.1084,-0.1118,-0.1056,-0.0746,-0.0745,-0.0743,-0.0742,0,0,-0.1448,-0.1391,-0.1403,-0.1298,-0.1296,-0.121,-0.1184,-0.1143,-0.1135,-0.1063,-0.1038,-0.1136,-0.1191,-0.0959,-0.0911,-0.08,-0.0935,-0.0758,-0.1201,-0.1246,-0.1278,-0.1376,-0.1321,0,0,0,0,0]},{"header":{"parameterUnit":"m.s-1","parameterCategory":2,"la1":30.2991,"la2":30.254,"lo1":-89.0895,"lo2":-89.0444,"dy":0.0017,"dx":0.0017,"nx":28,"ny":28,"refTime":"2025-01-07T03:00:00:Z","depth":"2","parameterNumber":3,"parameterNumberName":"V-component_of_CURRENTS"},"data":[0,0,0,0,0,0,0,0,0,0,0,0,0,0,0,0,0,0,0,0,0,0,0,0,0,0,0,0,0,0,0,0,0,0,0,0,0,0,0,0,0,0,0,0,0,0,0,0,0,0,0,0,0,0,0,0,0,0,-0.0197,-0.0197,0,-0.0189,-0.0189,-0.0189,-0.0189,-0.0189,-0.019,-0.019,-0.0122,-0.012,-0.0118,0,0,0,0,0,0,0,0,0,0,0,0,0,-0.02,-0.02,-0.0197,-0.0197,-0.0197,-0.0189,-0.0189,-0.0189,-0.0189,-0.0189,-0.019,-0.019,-0.0122,-0.012,-0.0117,0,0,0,0,0,0,0,0,0,0,0,0,0,-0.0195,-0.02,-0.0197,-0.0198,-0.0198,-0.0189,-0.0189,-0.0189,-0.0189,-0.0189,-0.019,-0.019,-0.0123,-0.012,-0.0117,-0.009,0,0,-0.0108,-0.0106,0,0,0,0,0,0,0,0,-0.0195,-0.0195,-0.0198,-0.0198,-0.0198,-0.0192,-0.0165,-0.0153,-0.0189,-0.0191,-0.019,-0.019,-0.014,-0.0136,-0.0132,-0.0087,-0.0084,-0.0107,-0.0105,-0.0104,-0.0103,0,0,0,0,0,0,0,-0.0196,-0.0195,-0.0193,-0.0198,-0.0198,-0.0194,-0.0194,-0.0163,-0.0161,-0.0191,-0.0191,-0.0192,-0.014,-0.0135,-0.013,-0.0083,-0.0107,-0.0105,-0.0103,-0.0102,-0.0024,-0.0024,0,0,0,0,0,0,-0.02,-0.0195,-0.0193,-0.0192,-0.0199,-0.0194,-0.0193,-0.0192,-0.0163,-0.016,-0.0192,-0.0192,-0.014,-0.0134,-0.0128,-0.0112,-0.0104,-0.0101,-0.0099,-0.0024,-0.0024,-0.0024,0,0,0,0,0,0,-0.02,-0.02,-0.0193,-0.0195,-0.0194,-0.0194,-0.0192,-0.0192,-0.0195,-0.0165,-0.016,-0.0196,-0.014,-0.0132,-0.0109,-0.0109,-0.01,-0.0097,-0.0024,-0.0024,-0.0024,-0.0069,0,0,0,0,0,0,-0.02,-0.02,-0.0203,-0.0195,-0.0194,-0.0195,-0.0192,-0.0191,-0.0195,-0.0196,-0.0166,-0.016,-0.014,-0.0114,-0.0106,-0.0104,-0.0095,-0.0025,-0.0024,-0.0024,-0.0067,-0.007,-0.0072,0,0,0,0,0,-0.02,-0.0207,-0.0203,-0.0204,-0.0198,-0.0195,-0.0195,-0.0194,-0.0195,-0.0198,-0.0179,-0.0162,-0.0106,-0.0112,-0.0102,-0.0099,-0.0025,-0.0024,-0.0024,-0.0066,-0.0069,-0.0072,0,0,0,0,0,0,-0.0213,-0.0207,-0.0204,-0.0209,-0.0205,-0.0196,-0.0202,-0.0198,-0.0186,-0.0186,-0.0159,-0.0151,-0.0131,-0.0106,-0.0114,-0.0075,-0.0062,-0.006,-0.0097,-0.01,-0.0102,-0.0111,-0.0092,0,0,0,0,0,-0.0216,-0.0218,-0.0211,-0.0215,-0.0216,-0.0209,-0.0209,-0.0205,-0.0193,-0.019,-0.017,-0.0144,-0.012,-0.0105,-0.0079,-0.0056,-0.0027,-0.0047,-0.0049,-0.0052,-0.0052,-0.0012,-0.0011,-0.0022,-0.0022,-0.0022,0,0,-0.0223,-0.022,-0.0222,-0.0218,-0.0216,-0.0222,-0.021,-0.0211,-0.0212,-0.0181,-0.0176,-0.0151,-0.0116,-0.0095,-0.0083,-0.0076,-0.0032,-0.0051,-0.0053,-0.0053,-0.0012,-0.0011,-0.001,-0.0022,-0.0022,-0.0022,0,0,-0.0241,-0.0234,-0.0245,-0.0245,-0.0243,-0.0234,-0.0237,-0.0228,-0.0222,-0.0209,-0.0188,-0.0166,-0.0129,-0.0106,-0.0088,-0.0084,-0.0048,-0.0074,-0.0091,-0.0052,-0.0051,-0.005,-0.0012,-0.0007,-0.0074,-0.0074,-0.0074,0,-0.025,-0.0263,-0.0248,-0.0261,-0.0266,-0.0243,-0.0257,-0.0244,-0.0228,-0.0219,-0.0213,-0.0162,-0.0134,-0.0106,-0.0108,-0.009,-0.0062,-0.0087,-0.0056,-0.0054,-0.0052,-0.0013,-0.0007,-0.0076,-0.0075,-0.0075,-0.0075,0,-0.0281,-0.0292,-0.03,-0.0307,-0.0303,-0.0312,-0.0292,-0.0282,-0.0268,-0.0253,-0.0225,-0.0187,-0.0157,-0.0143,-0.0125,-0.0096,-0.0079,-0.0067,-0.0053,-0.0054,-0.0013,-0.0005,-0.0079,-0.0078,-0.0077,-0.0077,0,0,-0.0301,-0.032,-0.0325,-0.0337,-0.033,-0.0331,-0.0321,-0.0307,-0.0305,-0.0274,-0.0265,-0.022,-0.0198,-0.0176,-0.0145,-0.0111,-0.0073,-0.0087,-0.0084,-0.0055,0.0014,0.0047,0.0058,-0.0057,-0.0056,-0.0055,0.0037,0,-0.0334,-0.0378,-0.0368,-0.0394,-0.0412,-0.0383,-0.038,-0.0357,-0.033,-0.0312,-0.0261,-0.0241,-0.021,-0.0197,-0.0157,-0.0096,-0.0056,-0.0099,0.0018,0.0021,0.0044,0.0067,0.0047,0.0129,0.0045,0.0046,0.0047,0,-0.0375,-0.0393,-0.0436,-0.0444,-0.0448,-0.0455,-0.0439,-0.0431,-0.0388,-0.0365,-0.0325,-0.0286,-0.0231,-0.0208,-0.0096,-0.0125,-0.0059,-0.0009,-0.0004,0.0047,0.0067,0.0118,0.0146,0.0059,0.0058,0.0057,0.0057,0,-0.0412,-0.0441,-0.0478,-0.0486,-0.0487,-0.049,-0.0486,-0.0453,-0.0447,-0.0399,-0.0386,-0.0313,-0.0276,-0.0187,-0.0077,-0.0086,0.0049,0.0052,0.0146,0.0149,0.0166,0.0169,0.0134,0.0134,0.0134,0.0134,0.0133,0,-0.046,-0.0485,-0.0504,-0.0522,-0.0556,-0.0535,-0.0553,-0.0532,-0.0502,-0.0494,-0.0421,-0.039,-0.027,-0.0177,-0.008,0.0062,0.0053,0.0152,0.0179,0.0151,0.0151,0.0115,0.0112,0.0137,0.0136,0.0136,0.0135,0,-0.0505,-0.0519,-0.0556,-0.057,-0.0579,-0.0604,-0.0611,-0.0618,-0.0578,-0.0561,-0.0548,-0.0443,-0.0317,-0.0186,-0.003,0.0059,0.0187,0.0239,0.02,0.022,0.0261,0.0254,0.0352,0.0354,0.0356,0.0357,0.0358,0,-0.0545,-0.0569,-0.0603,-0.0629,-0.0641,-0.0672,-0.0691,-0.0666,-0.0661,-0.0589,-0.0578,-0.0457,-0.0358,-0.0111,0.0063,0.0249,0.0241,0.0339,0.0321,0.0269,0.0285,0.0275,0.0266,0.0327,0.0328,0.0328,0.0329,0,-0.0602,-0.0611,-0.0637,-0.069,-0.0723,-0.0755,-0.0772,-0.0778,-0.0732,-0.0697,-0.0613,-0.0527,-0.0289,-0.008,0.0163,0.0267,0.0306,0.036,0.0327,0.0272,0.0252,0.0265,0.0256,0.0335,0.0334,0.0334,0.0333,0.0333,-0.0645,-0.0678,-0.0707,-0.0753,-0.0789,-0.0815,-0.0827,-0.082,-0.08,-0.0718,-0.0639,-0.0485,-0.0291,0.006,0.0231,0.0391,0.0382,0.0422,0.0417,0.0412,0.039,0.0374,0.0475,0.0476,0.0476,0.0476,0.0476,0,-0.0693,-0.0717,-0.0766,-0.0808,-0.0839,-0.0847,-0.0858,-0.0839,-0.0799,-0.0716,-0.0615,-0.0387,-0.0149,0.0056,0.0317,0.0468,0.0444,0.0488,0.0426,0.042,0.0414,0.0389,0.0476,0.0477,0.0477,0.0477,0,0,-0.0714,-0.0761,-0.0776,-0.083,-0.0856,-0.0872,-0.0868,-0.0827,-0.0756,-0.0657,-0.0544,-0.0394,-0.0141,0.0041,0.0226,0.0364,0.0351,0.0374,0.0359,0.0258,0.025,0.0364,0.0317,0,0,0,0,0]}],[{"header":{"parameterUnit":"m.s-1","parameterCategory":2,"la1":30.2991,"la2":30.254,"lo1":-89.0895,"lo2":-89.0444,"dy":0.0017,"dx":0.0017,"nx":28,"ny":28,"refTime":"2025-01-07T03:00:00:Z","depth":"4","parameterNumber":2,"parameterNumberName":"U-component_of_CURRENTS"},"data":[0,0,0,0,0,0,0,0,0,0,0,0,0,0,0,0,0,0,0,0,0,0,0,0,0,0,0,0,0,0,0,0,0,0,0,0,0,0,0,0,0,0,0,0,0,0,0,0,0,0,0,0,0,0,0,0,0,0,-0.14,-0.1401,0,-0.1513,-0.1514,-0.1516,-0.1577,-0.1577,-0.1577,-0.1577,-0.1668,-0.1671,-0.1673,0,0,0,0,0,0,0,0,0,0,0,0,0,-0.131,-0.1311,-0.14,-0.1401,-0.1402,-0.1513,-0.1514,-0.1516,-0.1577,-0.1577,-0.1577,-0.1577,-0.1668,-0.167,-0.1673,0,0,0,0,0,0,0,0,0,0,0,0,0,-0.1379,-0.1311,-0.14,-0.1446,-0.1451,-0.1512,-0.1514,-0.1516,-0.1577,-0.1577,-0.1577,-0.1577,-0.1667,-0.167,-0.1674,-0.1692,0,0,-0.1684,-0.1686,0,0,0,0,0,0,0,0,-0.1375,-0.1382,-0.1438,-0.1443,-0.1449,-0.1531,-0.1516,-0.1574,-0.1577,-0.153,-0.1577,-0.1578,-0.162,-0.1627,-0.1649,-0.1696,-0.17,-0.1684,-0.1687,-0.1688,-0.1689,0,0,0,0,0,0,0,-0.137,-0.1378,-0.1445,-0.1439,-0.1446,-0.1486,-0.1496,-0.1528,-0.1572,-0.1534,-0.1538,-0.155,-0.1623,-0.1646,-0.1652,-0.1702,-0.1684,-0.1687,-0.169,-0.1691,-0.1814,-0.1815,0,0,0,0,0,0,-0.1351,-0.1373,-0.1441,-0.1448,-0.1411,-0.1487,-0.1498,-0.1505,-0.1573,-0.1583,-0.155,-0.1553,-0.164,-0.1647,-0.1655,-0.1734,-0.1688,-0.1691,-0.1693,-0.1813,-0.1814,-0.1815,0,0,0,0,0,0,-0.1349,-0.1356,-0.1437,-0.1413,-0.1426,-0.1488,-0.1496,-0.1507,-0.155,-0.1585,-0.1595,-0.1584,-0.164,-0.165,-0.1711,-0.1736,-0.1693,-0.1696,-0.1811,-0.1813,-0.1815,-0.1858,0,0,0,0,0,0,-0.1346,-0.1354,-0.1359,-0.1412,-0.1427,-0.1485,-0.1496,-0.1509,-0.1555,-0.1561,-0.1617,-0.1625,-0.1641,-0.1706,-0.1714,-0.174,-0.1699,-0.181,-0.1812,-0.1814,-0.1855,-0.1861,-0.1866,0,0,0,0,0,-0.1342,-0.1343,-0.1358,-0.1367,-0.1429,-0.1486,-0.1499,-0.1543,-0.1557,-0.1582,-0.1626,-0.1624,-0.1725,-0.171,-0.172,-0.1747,-0.1809,-0.1812,-0.1814,-0.1853,-0.186,-0.1866,0,0,0,0,0,0,-0.1314,-0.1351,-0.1369,-0.1383,-0.1437,-0.1497,-0.1524,-0.1554,-0.161,-0.1622,-0.1649,-0.1661,-0.172,-0.1728,-0.1711,-0.1787,-0.1762,-0.1767,-0.1788,-0.1795,-0.1801,-0.1788,-0.1702,0,0,0,0,0,-0.1307,-0.1317,-0.1369,-0.1388,-0.1413,-0.1473,-0.1504,-0.154,-0.1592,-0.1618,-0.1663,-0.1702,-0.1736,-0.1762,-0.1795,-0.1844,-0.1825,-0.1863,-0.1869,-0.1873,-0.1869,-0.1869,-0.1874,-0.1824,-0.1824,-0.1824,0,0,-0.1305,-0.1326,-0.1335,-0.1383,-0.1429,-0.1475,-0.1494,-0.1552,-0.1598,-0.1618,-0.17,-0.1728,-0.1753,-0.1809,-0.1835,-0.1822,-0.1878,-0.1877,-0.188,-0.1874,-0.1872,-0.1877,-0.1881,-0.1826,-0.1826,-0.1825,0,0,-0.1307,-0.1326,-0.1339,-0.1384,-0.145,-0.1489,-0.1508,-0.1586,-0.1629,-0.1705,-0.1726,-0.1771,-0.1839,-0.186,-0.1875,-0.1929,-0.1907,-0.194,-0.1962,-0.1963,-0.1967,-0.197,-0.1948,-0.1948,-0.1943,-0.1943,-0.1943,0,-0.1306,-0.1327,-0.1357,-0.1392,-0.1433,-0.1495,-0.1539,-0.1592,-0.1685,-0.1721,-0.1736,-0.1831,-0.1859,-0.1905,-0.1928,-0.1941,-0.1929,-0.1936,-0.1969,-0.1972,-0.1974,-0.1951,-0.1951,-0.1946,-0.1945,-0.1945,-0.1945,0,-0.132,-0.1351,-0.137,-0.1427,-0.1474,-0.1527,-0.1599,-0.166,-0.1717,-0.1768,-0.1844,-0.1885,-0.1934,-0.1952,-0.1962,-0.1996,-0.1977,-0.1975,-0.1949,-0.1981,-0.1955,-0.1954,-0.1949,-0.1948,-0.1947,-0.1947,0,0,-0.128,-0.1362,-0.137,-0.141,-0.1501,-0.1543,-0.1621,-0.1704,-0.1755,-0.1836,-0.1893,-0.1959,-0.1979,-0.1996,-0.2012,-0.202,-0.2031,-0.201,-0.2009,-0.1982,-0.2017,-0.188,-0.1866,-0.2037,-0.2037,-0.2038,-0.1989,0,-0.129,-0.1346,-0.139,-0.1467,-0.151,-0.159,-0.1656,-0.1739,-0.181,-0.1882,-0.1926,-0.1985,-0.1995,-0.2021,-0.2033,-0.2037,-0.2033,-0.2043,-0.1995,-0.1993,-0.1862,-0.1862,-0.2039,-0.1989,-0.1989,-0.1988,-0.1988,0,-0.1282,-0.1326,-0.1392,-0.1492,-0.1519,-0.1575,-0.1686,-0.1755,-0.1856,-0.1912,-0.197,-0.2007,-0.2046,-0.2042,-0.2049,-0.2057,-0.2039,-0.2031,-0.2029,-0.1882,-0.1854,-0.1952,-0.1987,-0.1987,-0.1987,-0.1987,-0.1987,0,-0.1229,-0.1324,-0.1376,-0.1414,-0.1534,-0.1585,-0.1653,-0.1763,-0.1828,-0.1924,-0.1968,-0.2021,-0.2046,-0.2043,-0.2038,-0.2048,-0.2023,-0.203,-0.1882,-0.1872,-0.1992,-0.199,-0.2015,-0.2015,-0.2015,-0.2015,-0.2015,0,-0.1206,-0.1252,-0.1358,-0.1391,-0.1465,-0.1559,-0.1648,-0.1723,-0.1829,-0.1876,-0.1971,-0.1987,-0.2049,-0.2049,-0.2035,-0.1943,-0.2016,-0.1871,-0.1847,-0.2011,-0.2012,-0.1991,-0.1989,-0.2013,-0.2014,-0.2014,-0.2015,0,-0.114,-0.121,-0.1276,-0.1399,-0.1442,-0.1492,-0.1637,-0.1687,-0.18,-0.1857,-0.1885,-0.1971,-0.1954,-0.1986,-0.1973,-0.1915,-0.1859,-0.1808,-0.1966,-0.1955,-0.1709,-0.171,-0.163,-0.1625,-0.162,-0.1616,-0.1613,0,-0.1115,-0.1139,-0.1259,-0.1295,-0.1355,-0.1452,-0.1511,-0.1652,-0.1693,-0.1811,-0.1803,-0.1847,-0.1878,-0.1743,-0.1797,-0.1745,-0.1729,-0.1692,-0.1711,-0.1683,-0.1669,-0.1677,-0.1684,-0.1606,-0.1605,-0.1604,-0.1602,0,-0.1063,-0.1104,-0.1151,-0.1219,-0.1282,-0.1353,-0.1438,-0.146,-0.1588,-0.1706,-0.1669,-0.1661,-0.1637,-0.1626,-0.1602,-0.157,-0.1715,-0.1644,-0.1654,-0.1672,-0.1653,-0.1645,-0.1657,-0.1587,-0.1589,-0.159,-0.1591,0,-0.1018,-0.1024,-0.1078,-0.1124,-0.1196,-0.1214,-0.1287,-0.1317,-0.1379,-0.1504,-0.1472,-0.152,-0.1593,-0.1531,-0.1503,-0.1467,-0.1449,-0.1407,-0.1429,-0.1447,-0.1413,-0.1363,-0.1171,0,0,0,0,0,-0.0972,-0.0954,-0.0985,-0.1018,-0.1077,-0.1115,-0.1215,-0.1286,-0.1401,-0.1323,-0.14,-0.1365,-0.1333,-0.1364,-0.1287,-0.1428,-0.1462,-0.1334,-0.1427,-0.15,-0.1518,-0.1497,0,0,0,0,0,0,-0.0934,-0.0949,-0.0944,-0.0913,-0.0913,-0.0962,-0.1016,-0.1096,-0.1069,-0.1187,-0.1173,-0.1265,-0.1254,-0.134,-0.1249,-0.126,-0.1286,-0.1378,-0.1374,-0.149,-0.1506,-0.1521,-0.1506,0,0,0,0,0]},{"header":{"parameterUnit":"m.s-1","parameterCategory":2,"la1":30.2991,"la2":30.254,"lo1":-89.0895,"lo2":-89.0444,"dy":0.0017,"dx":0.0017,"nx":28,"ny":28,"refTime":"2025-01-07T03:00:00:Z","depth":"4","parameterNumber":3,"parameterNumberName":"V-component_of_CURRENTS"},"data":[0,0,0,0,0,0,0,0,0,0,0,0,0,0,0,0,0,0,0,0,0,0,0,0,0,0,0,0,0,0,0,0,0,0,0,0,0,0,0,0,0,0,0,0,0,0,0,0,0,0,0,0,0,0,0,0,0,0,-0.006,-0.006,0,-0.0067,-0.0067,-0.0067,-0.0067,-0.0066,-0.0066,-0.0066,-0.0023,-0.0022,-0.0021,0,0,0,0,0,0,0,0,0,0,0,0,0,-0.0039,-0.004,-0.006,-0.006,-0.0061,-0.0067,-0.0067,-0.0067,-0.0067,-0.0066,-0.0066,-0.0066,-0.0024,-0.0022,-0.0021,0,0,0,0,0,0,0,0,0,0,0,0,0,-0.0047,-0.004,-0.006,-0.0062,-0.0062,-0.0067,-0.0067,-0.0067,-0.0067,-0.0066,-0.0066,-0.0066,-0.0024,-0.0022,-0.0021,-0.0012,0,0,-0.0016,-0.0015,0,0,0,0,0,0,0,0,-0.0046,-0.0048,-0.0061,-0.0061,-0.0062,-0.0066,-0.0043,-0.0046,-0.0067,-0.0064,-0.0066,-0.0066,-0.0033,-0.0031,-0.0032,-0.001,-0.0008,-0.0016,-0.0015,-0.0014,-0.0013,0,0,0,0,0,0,0,-0.0046,-0.0047,-0.0062,-0.0061,-0.0062,-0.0059,-0.006,-0.0044,-0.0048,-0.0064,-0.0065,-0.0066,-0.0033,-0.0034,-0.0031,-0.0008,-0.0016,-0.0014,-0.0013,-0.0013,0.0028,0.0028,0,0,0,0,0,0,-0.0047,-0.0047,-0.0062,-0.0063,-0.0054,-0.0059,-0.006,-0.0064,-0.0049,-0.0047,-0.0066,-0.0066,-0.0037,-0.0033,-0.003,-0.0025,-0.0014,-0.0012,-0.0011,0.0028,0.0028,0.0028,0,0,0,0,0,0,-0.0046,-0.0048,-0.0062,-0.0055,-0.0057,-0.006,-0.0064,-0.0065,-0.0066,-0.0051,-0.0048,-0.0067,-0.0037,-0.0032,-0.0023,-0.0023,-0.0012,-0.001,0.0028,0.0028,0.0028,-0.0012,0,0,0,0,0,0,-0.0046,-0.0048,-0.0049,-0.0055,-0.0057,-0.0069,-0.0064,-0.0065,-0.0067,-0.0067,-0.005,-0.0047,-0.0036,-0.0025,-0.0021,-0.0021,-0.0009,0.0028,0.0028,0.0028,-0.0011,-0.0013,-0.0015,0,0,0,0,0,-0.0045,-0.0051,-0.0049,-0.0051,-0.0059,-0.0069,-0.007,-0.0072,-0.0067,-0.0071,-0.0062,-0.0047,-0.0021,-0.0024,-0.0019,-0.0018,0.0028,0.0028,0.0028,-0.001,-0.0013,-0.0015,0,0,0,0,0,0,-0.0041,-0.0051,-0.005,-0.0058,-0.0063,-0.007,-0.0072,-0.0072,-0.0069,-0.0066,-0.005,-0.0046,-0.0038,-0.002,-0.0025,-0.0005,0.0008,0.0009,-0.0022,-0.0025,-0.0027,-0.003,-0.0007,0,0,0,0,0,-0.0041,-0.0049,-0.0055,-0.0062,-0.0064,-0.0067,-0.0069,-0.0072,-0.0071,-0.007,-0.006,-0.0045,-0.0033,-0.0024,-0.0011,-0.0001,0.0023,0.0005,0.0003,0.0001,0.0003,0.0036,0.0037,0.0029,0.0029,0.0029,0,0,-0.0043,-0.0048,-0.0053,-0.0062,-0.0064,-0.0076,-0.0068,-0.0076,-0.0083,-0.0064,-0.0067,-0.0054,-0.0032,-0.0026,-0.0019,-0.0012,0.0016,0.0001,-0.0001,0.0002,0.0036,0.0037,0.0038,0.0029,0.0029,0.0029,0,0,-0.0054,-0.0053,-0.0065,-0.0071,-0.0078,-0.0081,-0.0083,-0.009,-0.0089,-0.0091,-0.0078,-0.0067,-0.005,-0.0038,-0.0027,-0.0031,0.0,-0.0023,-0.0036,-0.0004,-0.0003,-0.0002,0.0026,0.003,-0.0023,-0.0023,-0.0023,0,-0.0054,-0.0072,-0.007,-0.0083,-0.0092,-0.0084,-0.0101,-0.0098,-0.0102,-0.01,-0.0096,-0.0072,-0.0056,-0.0042,-0.0046,-0.0036,-0.0013,-0.003,-0.0008,-0.0006,-0.0004,0.0025,0.003,-0.0025,-0.0024,-0.0024,-0.0024,0,-0.008,-0.0091,-0.0098,-0.0114,-0.012,-0.0133,-0.0132,-0.0132,-0.0127,-0.0126,-0.0115,-0.0095,-0.008,-0.0072,-0.0062,-0.0041,-0.0028,-0.0017,-0.0003,-0.0006,0.0025,0.0031,-0.0027,-0.0027,-0.0026,-0.0026,0,0,-0.0092,-0.0113,-0.0116,-0.013,-0.0138,-0.015,-0.0152,-0.0156,-0.0159,-0.0148,-0.0148,-0.0125,-0.0111,-0.0098,-0.0079,-0.0051,-0.0023,-0.0032,-0.0029,-0.0009,0.0047,0.004,0.0046,-0.0009,-0.0008,-0.0007,0.0062,0,-0.0114,-0.0147,-0.015,-0.018,-0.0199,-0.019,-0.0198,-0.0197,-0.0187,-0.0182,-0.015,-0.0144,-0.0121,-0.0117,-0.0085,-0.004,-0.0009,-0.0043,0.0051,0.0054,0.0044,0.0053,-0.0005,0.0066,0.0067,0.0068,0.0069,0,-0.0142,-0.0162,-0.0196,-0.0221,-0.0228,-0.0242,-0.0249,-0.0254,-0.0235,-0.0226,-0.0202,-0.0178,-0.014,-0.0122,-0.0036,-0.0058,-0.0008,0.003,0.0034,0.0047,0.0058,0.0072,0.008,0.0079,0.0078,0.0078,0.0077,0,-0.0165,-0.0196,-0.0225,-0.0235,-0.0258,-0.0267,-0.0277,-0.0269,-0.028,-0.0251,-0.0253,-0.0198,-0.0178,-0.0103,-0.0025,-0.0028,0.0072,0.008,0.0124,0.0125,0.0127,0.0125,0.0146,0.0146,0.0145,0.0145,0.0145,0,-0.0192,-0.0218,-0.0239,-0.0258,-0.0297,-0.0298,-0.033,-0.0323,-0.0321,-0.0334,-0.028,-0.027,-0.0172,-0.0107,-0.0028,0.0065,0.0074,0.0126,0.0143,0.0108,0.0104,0.0131,0.0128,0.0148,0.0147,0.0147,0.0146,0,-0.0218,-0.023,-0.0269,-0.0297,-0.0312,-0.0339,-0.038,-0.04,-0.0384,-0.0395,-0.039,-0.0323,-0.0233,-0.0132,-0.0009,0.0051,0.0146,0.0177,0.013,0.0143,0.018,0.0174,0.0237,0.0237,0.0237,0.0238,0.0238,0,-0.0241,-0.0261,-0.0303,-0.0336,-0.0353,-0.0396,-0.0431,-0.0436,-0.0451,-0.0427,-0.043,-0.0352,-0.0296,-0.0122,-0.0013,0.0142,0.016,0.021,0.0198,0.018,0.019,0.0184,0.0179,0.0238,0.0239,0.0239,0.0239,0,-0.0285,-0.0292,-0.032,-0.038,-0.0425,-0.0474,-0.0513,-0.0528,-0.0523,-0.0517,-0.0459,-0.0367,-0.0264,-0.0125,-0.0007,0.0103,0.0178,0.0213,0.0213,0.0203,0.0182,0.0191,0.0185,0.024,0.024,0.024,0.024,0,-0.0321,-0.0345,-0.0376,-0.0426,-0.0483,-0.0525,-0.0544,-0.0552,-0.056,-0.0519,-0.05,-0.038,-0.031,-0.0145,-0.0035,0.0072,0.0098,0.0131,0.0136,0.0136,0.0083,0.0041,0.0073,0,0,0,0,0,-0.0363,-0.0383,-0.0429,-0.0476,-0.0525,-0.055,-0.0589,-0.0595,-0.0588,-0.0554,-0.0523,-0.0423,-0.0251,-0.0173,-0.0066,-0.0033,0.0111,0.0094,0.015,0.0246,0.0245,0.0199,0,0,0,0,0,0,-0.0392,-0.0432,-0.0433,-0.0499,-0.0533,-0.0585,-0.0603,-0.0598,-0.0568,-0.0543,-0.0449,-0.0401,-0.0231,-0.0311,-0.0064,-0.0032,0.0016,0.0175,0.0177,0.0247,0.0246,0.0245,0.0198,0,0,0,0,0]}]]